H1 CPF 2 NER 2021 8 24 9 236 01 glonass137 H2 1705501 9137 42939 2021 8 24 0 0 0 2021 8 27 23 45 0 900 1 1 0 0 0 1 H9 10 0 59450 0.00000 0 2645427.302 21828535.364 12932069.563 10 0 59450 900.00000 0 2558321.072 23252281.766 10167144.385 10 0 59450 1800.00000 0 2596653.266 24326900.754 7204679.958 10 0 59450 2700.00000 0 2711977.574 25022637.700 4102186.105 10 0 59450 3600.00000 0 2851583.655 25322127.745 919937.372 10 0 59450 4500.00000 0 2960968.798 25221069.143 -2280200.015 10 0 59450 5400.00000 0 2986391.857 24728367.065 -5435975.695 10 0 59450 6300.00000 0 2877400.312 23865740.787 -8485973.163 10 0 59450 7200.00000 0 2589222.150 22666810.238 -11370813.502 10 0 59450 8100.00000 0 2084919.728 21175699.982 -14034320.464 10 0 59450 9000.00000 0 1337212.790 19445219.275 -16424623.264 10 0 59450 9900.00000 0 329891.869 17534694.958 -18495174.587 10 0 59450 10800.00000 0 -941239.262 15507548.629 -20205663.330 10 0 59450 11700.00000 0 -2467933.397 13428720.277 -21522803.823 10 0 59450 12600.00000 0 -4229601.312 11362046.991 -22420985.875 10 0 59450 13500.00000 0 -6193941.647 9367706.926 -22882773.016 10 0 59450 14400.00000 0 -8318073.668 7499835.662 -22899239.443 10 0 59450 15300.00000 0 -10550125.979 5804414.601 -22470139.416 10 0 59450 16200.00000 0 -12831215.084 4317519.167 -21603906.264 10 0 59450 17100.00000 0 -15097731.351 3063999.185 -20317481.449 10 0 59450 18000.00000 0 -17283836.841 2056645.457 -18635977.476 10 0 59450 18900.00000 0 -19324070.796 1295875.837 -16592181.647 10 0 59450 19800.00000 0 -21155954.009 769952.205 -14225910.689 10 0 59450 20700.00000 0 -22722483.332 455717.334 -11583229.243 10 0 59450 21600.00000 0 -23974412.344 319818.763 -8715547.802 10 0 59450 22500.00000 0 -24872223.211 320366.311 -5678618.003 10 0 59450 23400.00000 0 -25387707.734 408951.779 -2531445.261 10 0 59450 24300.00000 0 -25505092.176 532944.210 664859.741 10 0 59450 25200.00000 0 -25221659.585 637962.720 3848268.120 10 0 59450 26100.00000 0 -24547844.481 670421.703 6957035.061 10 0 59450 27000.00000 0 -23506796.857 580040.398 9930893.911 10 0 59450 27900.00000 0 -22133434.574 322210.622 12712219.129 10 0 59450 28800.00000 0 -20473024.452 -139877.267 15247135.809 10 0 59450 29700.00000 0 -18579351.763 -833439.818 17486554.922 10 0 59450 30600.00000 0 -16512554.607 -1774712.933 19387115.069 10 0 59450 31500.00000 0 -14336713.317 -2968029.798 20912013.359 10 0 59450 32400.00000 0 -12117294.694 -4405403.471 22031710.382 10 0 59450 33300.00000 0 -9918556.591 -6066632.401 22724496.574 10 0 59450 34200.00000 0 -7801019.752 -7919925.543 22976909.738 10 0 59450 35100.00000 0 -5819110.804 -9923022.400 22783996.173 10 0 59450 36000.00000 0 -4019073.147 -12024762.976 22149410.512 10 0 59450 36900.00000 0 -2437231.559 -14167043.941 21085352.083 10 0 59450 37800.00000 0 -1098681.747 -16287081.342 19612338.462 10 0 59450 38700.00000 0 -16458.713 -18319887.243 17758819.628 10 0 59450 39600.00000 0 808781.806 -20200858.387 15560639.069 10 0 59450 40500.00000 0 1388555.799 -21868369.891 13060351.026 10 0 59450 41400.00000 0 1745826.167 -23266266.204 10306405.800 10 0 59450 42300.00000 0 1913791.022 -24346145.176 7352217.935 10 0 59450 43200.00000 0 1934236.180 -25069339.215 4255134.502 10 0 59450 44100.00000 0 1855521.410 -25408509.737 1075323.034 10 0 59450 45000.00000 0 1730285.835 -25348786.881 -2125399.259 10 0 59450 45900.00000 0 1612970.103 -24888405.523 -5284771.979 10 0 59450 46800.00000 0 1557261.104 -24038809.663 -8341309.630 10 0 59450 47700.00000 0 1613568.580 -22824219.850 -11235506.638 10 0 59450 48600.00000 0 1826641.873 -21280681.070 -13911004.913 10 0 59450 49500.00000 0 2233429.255 -19454630.661 -16315700.190 10 0 59450 50400.00000 0 2861271.979 -17401046.317 -18402764.650 10 0 59450 51300.00000 0 3726510.920 -15181251.990 -20131565.186 10 0 59450 52200.00000 0 4833566.119 -12860473.990 -21468458.990 10 0 59450 53100.00000 0 6174529.239 -10505250.054 -22387450.641 10 0 59450 54000.00000 0 7729287.175 -8180800.104 -22870697.946 10 0 59450 54900.00000 0 9466172.458 -5948468.781 -22908856.881 10 0 59450 55800.00000 0 11343113.690 -3863346.557 -22501259.212 10 0 59450 56700.00000 0 13309238.164 -1972168.372 -21655919.789 10 0 59450 57600.00000 0 15306859.733 -311576.752 -20389373.794 10 0 59450 58500.00000 0 17273768.720 1093179.107 -18726347.560 10 0 59450 59400.00000 0 19145727.987 2229055.419 -16699269.830 10 0 59450 60300.00000 0 20859070.683 3095504.832 -14347633.294 10 0 59450 61200.00000 0 22353290.834 3704236.129 -11717219.323 10 0 59450 62100.00000 0 23573518.370 4078454.771 -8859201.319 10 0 59450 63000.00000 0 24472775.088 4251618.240 -5829144.523 10 0 59450 63900.00000 0 25013917.278 4265760.446 -2685922.187 10 0 59450 64800.00000 0 25171184.051 4169457.516 509430.462 10 0 59450 65700.00000 0 24931287.013 4015522.165 3694901.923 10 0 59450 66600.00000 0 24293996.256 3858524.991 6808706.414 10 0 59450 67500.00000 0 23272198.771 3752248.070 9790478.869 10 0 59450 68400.00000 0 21891427.450 3747178.731 12582439.845 10 0 59450 69300.00000 0 20188880.855 3888149.383 15130508.098 10 0 59450 70200.00000 0 18211975.008 4212222.855 17385339.848 10 0 59450 71100.00000 0 16016487.607 4746912.242 19303275.477 10 0 59450 72000.00000 0 13664371.773 5508810.060 20847176.133 10 0 59450 72900.00000 0 11221329.720 6502684.467 21987135.143 10 0 59450 73800.00000 0 8754246.294 7721080.862 22701051.361 10 0 59450 74700.00000 0 6328587.969 9144446.293 22975054.134 10 0 59450 75600.00000 0 4005873.980 10741772.566 22803772.189 10 0 59450 76500.00000 0 1841323.210 12471732.589 22190441.409 10 0 59450 77400.00000 0 -118226.621 14284264.076 21146849.191 10 0 59450 78300.00000 0 -1836042.208 16122536.234 19693115.913 10 0 59450 79200.00000 0 -3286789.589 17925219.005 17857316.763 10 0 59450 80100.00000 0 -4457347.421 19628961.517 15674950.164 10 0 59450 81000.00000 0 -5347105.147 21170977.321 13188261.799 10 0 59450 81900.00000 0 -5967733.837 22491628.994 10445436.047 10 0 59450 82800.00000 0 -6342439.387 23536904.027 7499669.486 10 0 59450 83700.00000 0 -6504729.573 24260677.939 4408143.587 10 0 59450 84600.00000 0 -6496747.008 24626668.901 1230916.030 10 0 59450 85500.00000 0 -6367238.588 24610000.633 -1970247.799 10 0 59451 0.00000 0 -6169247.702 24198306.662 -5133080.093 10 0 59451 900.00000 0 -5957627.790 23392327.693 -8196029.024 10 0 59451 1800.00000 0 -5786482.763 22205976.759 -11099464.652 10 0 59451 2700.00000 0 -5706645.162 20665866.512 -13786849.104 10 0 59451 3600.00000 0 -5763298.778 18810319.437 -16205846.439 10 0 59451 4500.00000 0 -5993848.756 16687900.867 -18309349.829 10 0 59451 5400.00000 0 -6426130.203 14355536.577 -20056405.376 10 0 59451 6300.00000 0 -7077032.461 11876293.661 -21413014.065 10 0 59451 7200.00000 0 -7951598.186 9316917.822 -22352795.901 10 0 59451 8100.00000 0 -9042636.153 6745230.219 -22857503.356 10 0 59451 9000.00000 0 -10330864.831 4227492.693 -22917374.278 10 0 59451 9900.00000 0 -11785581.146 1825851.393 -22531317.705 10 0 59451 10800.00000 0 -13365826.616 -404034.869 -21706929.419 10 0 59451 11700.00000 0 -15022002.032 -2415083.291 -20460337.358 10 0 59451 12600.00000 0 -16697862.864 -4170506.479 -18815880.354 10 0 59451 13500.00000 0 -18332811.566 -5645092.201 -16805626.900 10 0 59451 14400.00000 0 -19864390.493 -6825991.625 -14468743.680 10 0 59451 15300.00000 0 -21230870.641 -7712984.937 -11850726.581 10 0 59451 16200.00000 0 -22373827.490 -8318215.260 -9002509.551 10 0 59451 17100.00000 0 -23240595.830 -8665404.196 -5979468.972 10 0 59451 18000.00000 0 -23786500.560 -8788583.947 -2840343.406 10 0 59451 18900.00000 0 -23976770.012 -8730401.318 353909.944 10 0 59451 19800.00000 0 -23788051.794 -8540066.687 3541299.534 10 0 59451 20700.00000 0 -23209467.907 -8271035.729 6660001.223 10 0 59451 21600.00000 0 -22243165.319 -7978522.637 9649554.104 10 0 59451 22500.00000 0 -20904339.301 -7716950.358 12452027.363 10 0 59451 23400.00000 0 -19220728.860 -7537445.589 15013135.829 10 0 59451 24300.00000 0 -17231605.485 -7485484.136 17283283.210 10 0 59451 25200.00000 0 -14986297.277 -7598785.601 19218513.622 10 0 59451 26100.00000 0 -12542309.624 -7905545.718 20781353.883 10 0 59451 27000.00000 0 -9963119.955 -8423080.480 21941531.272 10 0 59451 27900.00000 0 -7315737.197 -9156938.999 22676553.859 10 0 59451 28800.00000 0 -4668126.169 -10100522.594 22972142.890 10 0 59451 29700.00000 0 -2086602.351 -11235226.739 22822509.448 10 0 59451 30600.00000 0 366696.376 -12531100.933 22230470.203 10 0 59451 31500.00000 0 2636157.437 -13948000.166 21207399.804 10 0 59451 32400.00000 0 4674764.637 -15437181.322 19773020.287 10 0 59451 33300.00000 0 6445807.593 -16943279.317 17955030.614 10 0 59451 34200.00000 0 7924159.174 -18406581.713 15788582.427 10 0 59451 35100.00000 0 9097068.292 -19765507.817 13315610.863 10 0 59451 36000.00000 0 9964435.271 -20959189.228 10584032.131 10 0 59451 36900.00000 0 10538558.398 -21930043.949 7646822.375 10 0 59451 37800.00000 0 10843362.395 -22626235.874 4560994.802 10 0 59451 38700.00000 0 10913141.359 -23003915.676 1386494.449 10 0 59451 39600.00000 0 10790869.308 -23029147.782 -1814967.971 10 0 59451 40500.00000 0 10526149.998 -22679440.990 -4981120.228 10 0 59451 41400.00000 0 10172893.294 -21944816.744 -8050346.715 10 0 59451 42300.00000 0 9786817.120 -20828368.530 -10962895.915 10 0 59451 43200.00000 0 9422881.825 -19346287.412 -13662052.740 10 0 59451 44100.00000 0 9132766.673 -17527351.312 -16095251.914 10 0 59451 45000.00000 0 8962496.536 -15411898.625 -18215109.699 10 0 59451 45900.00000 0 8950320.411 -13050328.525 -19980353.199 10 0 59451 46800.00000 0 9124932.542 -10501190.436 -21356628.607 10 0 59451 47700.00000 0 9504112.287 -7828942.543 -22317172.362 10 0 59451 48600.00000 0 10093840.828 -5101473.013 -22843332.152 10 0 59451 49500.00000 0 10887932.551 -2387487.395 -22924927.791 10 0 59451 50400.00000 0 11868196.886 246128.763 -22560445.253 10 0 59451 51300.00000 0 13005123.909 2736862.398 -21757060.514 10 0 59451 52200.00000 0 14259064.828 5028934.638 -20530493.163 10 0 59451 53100.00000 0 15581857.479 7075373.944 -18904693.098 10 0 59451 54000.00000 0 16918828.244 8839715.415 -16911366.833 10 0 59451 54900.00000 0 18211085.918 10297256.706 -14589353.019 10 0 59451 55800.00000 0 19398010.745 11435819.764 -11983859.771 10 0 59451 56700.00000 0 20419833.692 12255988.441 -9145579.020 10 0 59451 57600.00000 0 21220197.308 12770814.098 -6129695.506 10 0 59451 58500.00000 0 21748590.308 13005003.606 -2994810.143 10 0 59451 59400.00000 0 21962553.530 12993625.884 198200.938 10 0 59451 60300.00000 0 21829564.583 12780393.218 3387369.209 10 0 59451 61200.00000 0 21328522.167 12415591.248 6510835.134 10 0 59451 62100.00000 0 20450767.957 11953746.023 9508044.756 10 0 59451 63000.00000 0 19200603.354 11451127.234 12320918.442 10 0 59451 63900.00000 0 17595279.607 10963193.241 14894969.357 10 0 59451 64800.00000 0 15664461.670 10542085.575 17180350.638 10 0 59451 65700.00000 0 13449187.929 10234278.165 19132811.778 10 0 59451 66600.00000 0 11000368.724 10078479.786 20714546.563 10 0 59451 67500.00000 0 8376885.384 10103877.445 21894917.209 10 0 59451 68400.00000 0 5643367.702 10328794.139 22651041.625 10 0 59451 69300.00000 0 2867740.907 10759817.127 22968233.209 10 0 59451 70200.00000 0 118642.407 11391433.462 22840285.247 10 0 59451 71100.00000 0 -2537186.192 12206188.534 22269594.611 10 0 59451 72000.00000 0 -5037425.083 13175361.855 21267122.161 10 0 59451 72900.00000 0 -7326516.954 14260132.886 19852190.101 10 0 59451 73800.00000 0 -9357726.445 15413189.414 18052119.251 10 0 59451 74700.00000 0 -11094833.564 16580712.353 15901712.188 10 0 59451 75600.00000 0 -12513391.284 17704654.990 13442590.935 10 0 59451 76500.00000 0 -13601495.232 18725221.907 10722400.781 10 0 59451 77400.00000 0 -14360033.358 19583443.991 7793894.560 10 0 59451 78300.00000 0 -14802405.242 20223741.281 4713914.323 10 0 59451 79200.00000 0 -14953722.798 20596365.367 1542289.597 10 0 59451 80100.00000 0 -14849526.031 20659617.509 -1659326.379 10 0 59451 81000.00000 0 -14534068.241 20381747.737 -4828659.579 10 0 59451 81900.00000 0 -14058243.452 19742453.260 -7904033.291 10 0 59451 82800.00000 0 -13477244.274 18733911.364 -10825576.750 10 0 59451 83700.00000 0 -12848050.108 17361301.579 -13536399.794 10 0 59451 84600.00000 0 -12226852.937 15642793.551 -15983709.698 10 0 59451 85500.00000 0 -11666530.641 13608999.846 -18119847.409 10 0 59452 0.00000 0 -11214275.745 11301915.656 -19903222.272 10 0 59452 900.00000 0 -10909481.085 8773388.759 -21299126.700 10 0 59452 1800.00000 0 -10781971.462 6083184.203 -22280414.174 10 0 59452 2700.00000 0 -10850658.366 3296723.252 -22828027.891 10 0 59452 3600.00000 0 -11122672.758 482591.652 -22931369.617 10 0 59452 4500.00000 0 -11593014.039 -2290079.231 -22588501.898 10 0 59452 5400.00000 0 -12244729.166 -4954249.396 -21806180.191 10 0 59452 6300.00000 0 -13049614.272 -7447515.833 -20599714.668 10 0 59452 7200.00000 0 -13969408.749 -9714461.231 -18992664.877 10 0 59452 8100.00000 0 -14957431.013 -11708708.770 -17016373.620 10 0 59452 9000.00000 0 -15960586.511 -13394598.478 -14709349.515 10 0 59452 9900.00000 0 -16921662.871 -14748416.511 -12116510.693 10 0 59452 10800.00000 0 -17781815.015 -15759127.744 -9288304.734 10 0 59452 11700.00000 0 -18483135.162 -16428582.842 -6279722.310 10 0 59452 12600.00000 0 -18971199.107 -16771193.104 -3149224.237 10 0 59452 13500.00000 0 -19197481.341 -16813088.693 42396.900 10 0 59452 14400.00000 0 -19121537.173 -16590797.522 3233198.060 10 0 59452 15300.00000 0 -18712860.054 -16149501.957 6361286.781 10 0 59452 16200.00000 0 -17952336.013 -15540948.079 9366018.512 10 0 59452 17100.00000 0 -16833234.161 -14821096.474 12189167.214 10 0 59452 18000.00000 0 -15361691.719 -14047614.024 14776046.715 10 0 59452 18900.00000 0 -13556673.126 -13277312.391 17076561.758 10 0 59452 19800.00000 0 -11449404.545 -12563640.794 19046169.162 10 0 59452 20700.00000 0 -9082306.882 -11954337.955 20646731.352 10 0 59452 21600.00000 0 -6507470.852 -11489341.278 21847246.799 10 0 59452 22500.00000 0 -3784736.379 -11199040.312 22624444.194 10 0 59452 23400.00000 0 -979454.787 -11102947.261 22963229.641 10 0 59452 24300.00000 0 1839974.956 -11208839.928 22856978.796 10 0 59452 25200.00000 0 4604695.467 -11512413.013 22307668.528 10 0 59452 26100.00000 0 7247999.883 -11997452.702 21325845.358 10 0 59452 27000.00000 0 9707853.858 -12636527.901 19930430.780 10 0 59452 27900.00000 0 11929227.317 -13392170.056 18148366.289 10 0 59452 28800.00000 0 13866140.041 -14218493.120 16014103.888 10 0 59452 29700.00000 0 15483336.676 -15063186.721 13568950.664 10 0 59452 30600.00000 0 16757521.798 -15869799.696 10860278.811 10 0 59452 31500.00000 0 17678103.466 -16580218.508 7940615.371 10 0 59452 32400.00000 0 18247414.157 -17137236.424 4866628.448 10 0 59452 33300.00000 0 18480399.656 -17487104.896 1698029.028 10 0 59452 34200.00000 0 18403788.854 -17581958.794 -1503590.306 10 0 59452 35100.00000 0 18054779.422 -17382012.002 -4675956.971 10 0 59452 36000.00000 0 17479294.962 -16857429.169 -7757336.344 10 0 59452 36900.00000 0 16729887.617 -15989792.920 -10687741.456 10 0 59452 37800.00000 0 15863375.374 -14773102.816 -13410109.904 10 0 59452 38700.00000 0 14938314.691 -13214262.162 -15871424.074 10 0 59452 39600.00000 0 14012416.190 -11333030.598 -18023751.829 10 0 59452 40500.00000 0 13140013.519 -9161443.075 -19825186.689 10 0 59452 41400.00000 0 12369693.121 -6742718.488 -21240668.634 10 0 59452 42300.00000 0 11742185.645 -4129702.951 -22242669.247 10 0 59452 43200.00000 0 11288608.377 -1382912.277 -22811727.811 10 0 59452 44100.00000 0 11029132.956 1431744.936 -22936828.119 10 0 59452 45000.00000 0 10972134.435 4245468.764 -22615608.906 10 0 59452 45900.00000 0 11113857.123 6989189.916 -21854404.288 10 0 59452 46800.00000 0 11438610.738 9596203.250 -20668113.798 10 0 59452 47700.00000 0 11919487.837 12004703.462 -19079905.049 10 0 59452 48600.00000 0 12519571.486 14160117.936 -17120755.221 10 0 59452 49500.00000 0 13193581.394 16017140.405 -14828840.695 10 0 59452 50400.00000 0 13889888.293 17541381.573 -12248787.145 10 0 59452 51300.00000 0 14552810.826 18710569.211 -9430795.076 10 0 59452 52200.00000 0 15125097.404 19515249.118 -6429658.172 10 0 59452 53100.00000 0 15550487.793 19958959.301 -3303694.076 10 0 59452 54000.00000 0 15776245.943 20057871.955 -113608.691 10 0 59452 54900.00000 0 15755557.004 19839920.046 3078683.557 10 0 59452 55800.00000 0 15449687.308 19343446.848 6211260.285 10 0 59452 56700.00000 0 14829816.292 18615436.632 9223389.176 10 0 59452 57600.00000 0 13878463.229 17709401.984 12056700.339 10 0 59452 58500.00000 0 12590448.752 16683017.292 14656310.520 10 0 59452 59400.00000 0 10973350.650 15595598.180 16971878.007 10 0 59452 60300.00000 0 9047434.445 14505532.645 18958568.552 10 0 59452 61200.00000 0 6845061.059 13467771.346 20577914.496 10 0 59452 62100.00000 0 4409595.431 12531481.611 21798551.512 10 0 59452 63000.00000 0 1793860.237 11737962.683 22596819.679 10 0 59452 63900.00000 0 -941802.278 11118908.734 22957218.034 10 0 59452 64800.00000 0 -3731781.599 10695091.666 22872704.435 10 0 59452 65700.00000 0 -6507671.724 10475518.359 22344835.144 10 0 59452 66600.00000 0 -9200864.539 10457097.506 21383741.288 10 0 59452 67500.00000 0 -11745157.916 10624830.119 20007942.127 10 0 59452 68400.00000 0 -14079271.755 10952516.181 18243997.859 10 0 59452 69300.00000 0 -16149168.480 11403948.494 16126007.549 10 0 59452 70200.00000 0 -17910082.306 11934544.372 13694960.648 10 0 59452 71100.00000 0 -19328173.127 12493347.344 10997953.343 10 0 59452 72000.00000 0 -20381736.034 13025315.196 8087283.834 10 0 59452 72900.00000 0 -21061915.728 13473798.212 5019443.208 10 0 59452 73800.00000 0 -21372895.625 13783102.960 1854020.885 10 0 59452 74700.00000 0 -21331553.287 13901032.794 -1347454.128 10 0 59452 75600.00000 0 -20966596.511 13781296.778 -4522713.475 10 0 59452 76500.00000 0 -20317216.331 13385683.823 -7609967.243 10 0 59452 77400.00000 0 -19431313.867 12685908.546 -10549114.696 10 0 59452 78300.00000 0 -18363376.258 11665049.045 -13282923.401 10 0 59452 79200.00000 0 -17172091.877 10318514.038 -15758152.804 10 0 59452 80100.00000 0 -15917806.276 8654496.856 -17926599.319 10 0 59452 81000.00000 0 -14659926.973 6693895.549 -19746041.876 10 0 59452 81900.00000 0 -13454387.320 4469701.087 -21181068.968 10 0 59452 82800.00000 0 -12351276.948 2025878.267 -22203770.745 10 0 59452 83700.00000 0 -11392739.023 -584214.598 -22794282.647 10 0 59452 84600.00000 0 -10611222.890 -3299801.769 -22941170.180 10 0 59452 85500.00000 0 -10028165.502 -6054979.696 -22641647.578 10 0 59453 0.00000 0 -9653156.504 -8781224.941 -21901626.590 10 0 59453 900.00000 0 -9483621.543 -11410016.196 -20735594.673 10 0 59453 1800.00000 0 -9505035.461 -13875461.302 -19166325.849 10 0 59453 2700.00000 0 -9691656.428 -16116819.920 -17224429.731 10 0 59453 3600.00000 0 -10007747.559 -18080817.995 -14947748.332 10 0 59453 4500.00000 0 -10409234.264 -19723657.442 -12380612.608 10 0 59453 5400.00000 0 -10845725.877 -21012638.626 -9572973.675 10 0 59453 6300.00000 0 -11262815.384 -21927328.942 -6579425.924 10 0 59453 7200.00000 0 -11604559.288 -22460230.017 -3458141.546 10 0 59453 8100.00000 0 -11816032.279 -22616917.190 -269737.546 10 0 59453 9000.00000 0 -11845848.332 -22415647.034 2923902.426 10 0 59453 9900.00000 0 -11648541.568 -21886450.948 6060828.198 10 0 59453 10800.00000 0 -11186706.232 -21069754.291 9080221.776 10 0 59453 11700.00000 0 -10432805.542 -20014580.208 11923571.484 10 0 59453 12600.00000 0 -9370573.176 -18776414.359 14535799.008 10 0 59453 13500.00000 0 -7995948.348 -17414820.629 16866318.106 10 0 59453 14400.00000 0 -6317504.878 -15990907.830 18870005.249 10 0 59453 15300.00000 0 -4356355.777 -14564753.226 20508064.285 10 0 59453 16200.00000 0 -2145536.465 -13192890.134 21748769.435 10 0 59453 17100.00000 0 271108.843 -11925963.796 22568073.223 10 0 59453 18000.00000 0 2840492.572 -10806652.602 22950068.376 10 0 59453 18900.00000 0 5502237.655 -9867940.578 22887295.392 10 0 59453 19800.00000 0 8190940.537 -9131812.472 22380890.049 10 0 59453 20700.00000 0 10838651.097 -8608425.440 21440567.887 10 0 59453 21600.00000 0 13377468.405 -8295791.632 20084445.439 10 0 59453 22500.00000 0 15742146.066 -8179984.948 18338700.792 10 0 59453 23400.00000 0 17872600.062 -8235863.602 16237078.943 10 0 59453 24300.00000 0 19716215.652 -8428278.567 13820250.228 10 0 59453 25200.00000 0 21229857.685 -8713717.675 11135032.976 10 0 59453 26100.00000 0 22381500.429 -9042316.611 8233494.323 10 0 59453 27000.00000 0 23151408.562 -9360152.317 5171945.735 10 0 59453 27900.00000 0 23532819.409 -9611721.983 2009852.139 10 0 59453 28800.00000 0 23532097.188 -9742502.482 -1191324.223 10 0 59453 29700.00000 0 23168352.321 -9701481.233 -4369322.556 10 0 59453 30600.00000 0 22472541.412 -9443550.225 -7462301.024 10 0 59453 31500.00000 0 21486085.620 -8931660.457 -10410048.398 10 0 59453 32400.00000 0 20259065.769 -8138643.925 -13155165.296 10 0 59453 33300.00000 0 18848070.557 -7048624.323 -15644191.021 10 0 59453 34200.00000 0 17313789.144 -5657955.083 -17828653.014 10 0 59453 35100.00000 0 15718450.158 -3975643.487 -19666017.732 10 0 59453 36000.00000 0 14123215.642 -2023241.417 -21120523.903 10 0 59453 36900.00000 0 12585640.201 165793.895 -22163881.553 10 0 59453 37800.00000 0 11157302.574 2547243.362 -22775823.158 10 0 59453 38700.00000 0 9881709.258 5067726.679 -22944496.368 10 0 59453 39600.00000 0 8792558.071 7666693.645 -22666690.887 10 0 59453 40500.00000 0 7912434.004 10278723.377 -21947895.559 10 0 59453 41400.00000 0 7251991.217 12836035.748 -20802184.941 10 0 59453 42300.00000 0 6809654.429 15271110.417 -19251938.053 10 0 59453 43200.00000 0 6571850.832 17519304.524 -17327395.209 10 0 59453 44100.00000 0 6513761.259 19521360.188 -15066061.933 10 0 59453 45000.00000 0 6600557.481 21225697.622 -12511972.017 10 0 59453 45900.00000 0 6789071.942 22590398.779 -9714824.429 10 0 59453 46800.00000 0 7029828.156 23584799.543 -6729011.250 10 0 59453 47700.00000 0 7269344.888 24190624.886 -3612556.025 10 0 59453 48600.00000 0 7452615.820 24402620.735 -425983.549 10 0 59453 49500.00000 0 7525659.230 24228657.442 2768856.633 10 0 59453 50400.00000 0 7438029.496 23689301.857 5909989.803 10 0 59453 51300.00000 0 7145184.079 22816877.288 8936515.363 10 0 59453 52200.00000 0 6610605.945 21654051.864 11789782.680 10 0 59453 53100.00000 0 5807591.916 20252015.365 14414520.902 10 0 59453 54000.00000 0 4720631.556 18668321.431 16759901.448 10 0 59453 54900.00000 0 3346318.400 16964485.623 18780513.361 10 0 59453 55800.00000 0 1693754.916 15203439.619 20437233.501 10 0 59453 56700.00000 0 -215566.487 13446947.344 21697975.785 10 0 59453 57600.00000 0 -2348402.476 11753090.057 22538305.966 10 0 59453 58500.00000 0 -4660892.484 10173924.328 22941910.853 10 0 59453 59400.00000 0 -7100141.454 8753409.474 22900913.557 10 0 59453 60300.00000 0 -9606187.663 7525689.779 22416028.898 10 0 59453 61200.00000 0 -12114275.610 6513802.308 21496555.869 10 0 59453 62100.00000 0 -14557341.401 5728863.533 20160206.823 10 0 59453 63000.00000 0 -16868609.018 5169768.328 18432775.792 10 0 59453 63900.00000 0 -18984190.769 4823413.851 16347651.297 10 0 59453 64800.00000 0 -20845584.702 4665438.967 13945181.770 10 0 59453 65700.00000 0 -22401965.428 4661448.435 11271904.580 10 0 59453 66600.00000 0 -23612172.755 4768670.657 8379652.505 10 0 59453 67500.00000 0 -24446314.733 4937979.343 5324554.008 10 0 59453 68400.00000 0 -24886917.395 5116193.756 2165946.156 10 0 59453 69300.00000 0 -24929572.154 5248560.073 -1034778.852 10 0 59453 70200.00000 0 -24583052.902 5281308.245 -4215370.909 10 0 59453 71100.00000 0 -23868897.152 5164175.138 -7313939.195 10 0 59453 72000.00000 0 -22820468.322 4852785.808 -10270164.705 10 0 59453 72900.00000 0 -21481538.386 4310790.553 -13026483.573 10 0 59453 73800.00000 0 -19904450.553 3511665.555 -15529217.126 10 0 59453 74700.00000 0 -18147939.622 2440099.276 -17729625.634 10 0 59453 75600.00000 0 -16274702.138 1092904.300 -19584864.461 10 0 59453 76500.00000 0 -14348819.056 -520585.396 -21058823.472 10 0 59453 77400.00000 0 -12433139.713 -2378649.846 -22122832.959 10 0 59453 78300.00000 0 -10586737.318 -4447846.636 -22756222.306 10 0 59453 79200.00000 0 -8862542.807 -6684175.668 -22946720.672 10 0 59453 80100.00000 0 -7305256.154 -9034696.976 -22690692.130 10 0 59453 81000.00000 0 -5949622.153 -11439534.346 -21993201.128 10 0 59453 81900.00000 0 -4819142.046 -13834181.331 -20867907.408 10 0 59453 82800.00000 0 -3925273.864 -16152013.429 -19336792.870 10 0 59453 83700.00000 0 -3267153.500 -18326901.689 -17429726.168 10 0 59453 84600.00000 0 -2831846.551 -20295818.798 -15183873.855 10 0 59453 85500.00000 0 -2595118.577 -22001328.930 -12642970.013 99